Regional Weather Roundup
Issued by NWS

Home | Current Version | Previous Version | Graphics & Text | Print | Product List | Glossary On
Versions: 1 2 3 4 5 6 7 8 9 10 11 12 13 14 15 16 17 18 19 20 21 22 23 24 25 26 27 28 29 30 31 32 33 34 35 36 37 38 39 40 41 42 43 44 45 46 47 48 49 50
000
ASUS43 KDMX 100406
RWRIA

WEATHER ROUNDUP FOR IOWA
NATIONAL WEATHER SERVICE DES MOINES IA
1000 PM CST SAT DEC 09 2017

NOTE: "FAIR" INDICATES FEW OR NO CLOUDS BELOW 12,000 FEET WITH NO
SIGNIFICANT WEATHER AND/OR OBSTRUCTIONS TO VISIBILITY.

* - THESE STATIONS ARE NOT NWS STATIONS...THUS NOT UNDER NWS
QUALITY CONTROL.  THEY ALSO DO NOT REPORT WEATHER SUCH
AS PRECIPITATION OR FOG.

IAZ001>003-012>014-020>022-031>034-043>046-100500-
   NORTHWEST IOWA

CITY           SKY/WX    TMP DP  RH WIND       PRES   REMARKS
CARROLL *      CLOUDY    23  18  80 SW3       30.02F
CHEROKEE *     CLOUDY    20  17  90 S3        29.99F
DENISON *      CLEAR     25  19  80 S7        30.03F WCI  17
LE MARS *      CLOUDY    23  19  86 S6        29.98F WCI  16
ORANGE CITY *  CLOUDY    23  21  93 S7        29.95F WCI  15
SHELDON *      CLOUDY    21  19  93 S12       29.94F WCI   9
SIOUX CITY     CLOUDY    19  15  84 E6        30.00F WCI  11
SPENCER        CLEAR     22  18  85 SW10      29.96F WCI  11
STORM LAKE *   CLOUDY    21  18  86 SW12      29.98F WCI   9
$$

IAZ055>058-069>071-079>083-090>094-100500-
   SOUTHWEST IOWA

CITY           SKY/WX    TMP DP  RH WIND       PRES   REMARKS
ATLANTIC *     CLOUDY    19  16  86 SW8       30.07F WCI   9
AUDUBON *      CLOUDY    23  18  80 S3        30.04F
CLARINDA *     CLOUDY    18  16  93 CALM      30.13F
COUNCIL BLFS * CLOUDY    28  23  80 SW10      30.06F WCI  19
CRESTON *      CLOUDY    21  16  79 SW7       30.09F WCI  13
HARLAN  *      PTCLDY    21  18  86 S8        30.08F WCI  12
LAMONI         CLOUDY    19  12  74 S8        30.11F WCI   9
RED OAK *      CLOUDY    19  16  86 S5        30.10F WCI  13
SHENANDOAH *   CLOUDY    21  18  86 W5        30.11F WCI  15
$$

IAZ047>049-059>061-072>074-084-100500-
   CENTRAL IOWA

CITY           SKY/WX    TMP DP  RH WIND       PRES   REMARKS
AMES           CLOUDY    18  14  84 SW6       30.06F WCI  10
ANKENY *       CLOUDY    23  16  74 CALM      30.09F
BOONE *        CLOUDY    21  16  79 SW7       30.04F WCI  13
CHARITON *     CLOUDY    21  14  73 SW7       30.10F WCI  13
DES MOINES     CLOUDY    23  14  68 S10       30.08F WCI  12
GRINNELL*      CLOUDY    18  13  79 SW7       30.09S WCI   9
KNOXVILLE *    CLOUDY    21  12  68 SW8       30.08F WCI  12
MARSHALLTOWN   CLOUDY    17  11  77 S5        30.06F WCI  10
NEWTON *       CLOUDY    19  12  73 SW7       30.09F WCI  10
PELLA *        CLOUDY    22  14  72 SW5       30.11F WCI  15
PERRY *          N/A     17  11  76 S9        30.05F WCI   6
$$

IAZ004>006-015-016-023>025-035-036-100500-
   NORTH CENTRAL IOWA

CITY           SKY/WX    TMP DP  RH WIND       PRES   REMARKS
ALGONA *       CLOUDY    21  18  86 S13       29.98F WCI   9
CLARION *      CLOUDY    19  14  79 S7        30.03F WCI  10
ESTHERVILLE    PTCLDY    22  19  89 S10       29.94F WCI  11
FORT DODGE *   CLOUDY    21  15  78 S7        30.03F WCI  12
MASON CITY     PTCLDY    19  13  77 S7        30.02F WCI  10
FOREST CITY *  MOCLDY    23  18  80 SW7       29.99F WCI  15
WEBSTER CITY * CLOUDY    16  10  79 S9        30.02S WCI   4
IOWA FALLS *   MOCLDY    19  13  79 S5        30.06S WCI  12
$$

IAZ007>011-017>019-026>030-037>042-050>054-066-100500-
   NORTHEAST IOWA

CITY           SKY/WX    TMP DP  RH WIND       PRES   REMARKS
CEDAR RAPIDS   CLOUDY    19  13  77 W7        30.08F WCI  10
CHARLES CITY * CLOUDY    19  14  79 SW6       30.02F WCI  11
CLINTON *      CLOUDY    17  12  80 W5        30.11S WCI  10
DECORAH *      CLOUDY    19  14  79 SW5       30.01F WCI  13
DUBUQUE        CLOUDY    17  12  80 SW3       30.05F
MONTICELLO *   CLOUDY    16  10  79 CALM      30.07F
OELWEIN *      CLOUDY    19  16  86 SW5       30.05F WCI  13
WATERLOO       CLOUDY    19  12  74 SW7       30.05F WCI  10
$$

IAZ064-065-067-068-078-100500-
   EAST CENTRAL IOWA

CITY           SKY/WX    TMP DP  RH WIND       PRES   REMARKS
DAVENPORT      CLOUDY    19  11  70 W8        30.13F WCI   9
IOWA CITY      CLOUDY    21  14  74 W3        30.13F
MT. PLEASANT * CLOUDY    19  13  77 S5        30.14F WCI  12
MUSCATINE *    CLOUDY    21  14  73 W7        30.14F WCI  13
QUAD CITIES    CLOUDY    21  13  71 SW5       30.12F WCI  15
$$

IAZ062-063-075>077-085>089-095>099-100500-
   SOUTHEAST IOWA

CITY           SKY/WX    TMP DP  RH WIND       PRES   REMARKS
BURLINGTON     PTCLDY    18  13  80 SW7       30.14F WCI   9
FAIRFIELD *    CLOUDY    19  10  68 SW5       30.12F WCI  13
FORT MADISON * CLOUDY    21  14  73 SW6       30.15F WCI  14
KEOKUK *       CLOUDY    21  14  73 SW6       30.16F WCI  14
OSKALOOSA *      N/A     17  12  81 SW7       30.12F WCI   7
WASHINGTON *   CLOUDY    21  16  79 SW6       30.14S WCI  14
$$

ABBREVIATIONS USED IN REMARKS
   TC - TEMPERATURES IN CELSIUS
  WCI - WIND CHILL INDEX
   HX - HEAT INDEX
  VSB - VISIBILITY
$$





USA.gov is the U.S. government's official web portal to all federal, state and local government web resources and services.